Temp
80 79 76 68 58 59 54 60 66 65 65 67 70 69 64 64 61 53 66 70 72 71 73 76 81 81 82 83 82 81 81 81 81 82 83 83 82 83 83 83 82 83 84 84 84 84 84 84 84
77 79 71 62 54 51 54 65 62 65 68 70 70 68 66 61 67 64 66 72 74 73 72 75 79 80 82 81 81 81 81 81 81 82 83 83 83 83 83 83 82 83 83 84 84 85 84 83 83
79 80 64 58 54 51 54 63 64 68 72 71 68 71 68 61 67 67 70 73 73 71 72 75 80 81 80 77 77 77 80 80 82 82 83 83 83 83 82 83 83 82 83 84 84 83 84 84 83
77 69 65 59 61 63 64 65 69 68 72 72 70 63 69 72 70 71 73 73 71 73 75 78 81 80 80 78 77 76 77 79 81 82 83 83 82 82 82 82 83 84 84 84 84 82 83 82 83
72 66 57 56 60 65 69 71 71 66 67 69 70 61 62 71 73 72 72 74 71 71 75 78 81 81 83 82 81 80 79 80 81 82 82 83 83 84 84 84 84 84 84 84 83 83 83 83 83
64 65 55 52 60 67 71 74 70 68 67 69 66 63 62 71 72 72 74 71 73 72 75 77 80 82 81 82 81 81 80 80 80 83 83 83 82 83 83 84 84 84 84 84 83 83 83 83 84
63 59 57 55 61 65 70 74 68 67 68 67 71 59 62 68 72 73 72 72 73 74 75 76 76 78 81 82 81 82 81 82 82 82 83 83 84 84 84 84 84 84 84 84 84 83 83 83 83
65 61 59 60 61 61 72 73 74 71 68 76 74 61 57 67 72 72 72 71 72 73 74 74 74 73 73 77 82 82 82 82 82 83 83 83 83 84 83 81 83 83 84 84 83 83 83 83 83
71 57 55 59 63 66 73 70 76 78 72 74 75 70 71 72 72 69 69 69 70 72 72 73 72 73 73 75 79 81 83 83 82 82 83 78 76 77 78 82 83 84 84 84 83 83 83 84 82
62 55 58 66 67 66 68 70 73 71 70 69 69 71 72 72 70 68 67 67 68 69 71 72 72 72 73 78 75 75 77 75 75 75 75 73 74 75 79 79 82 82 82 82 83 83 83 82 80
66 60 63 66 69 68 66 71 77 71 65 69 66 68 69 69 69 69 69 70 68 69 71 71 71 71 72 73 73 72 73 73 73 74 73 74 74 73 74 74 75 75 79 77 79 78 79 79 80
64 67 67 67 69 69 66 71 72 74 71 75 73 72 70 68 68 70 70 70 70 70 70 71 71 71 71 72 72 72 73 72 72 72 73 72 72 72 72 73 74 74 74 74 75 76 77 77 78
65 68 69 67 68 69 71 69 70 73 77 76 74 73 70 70 70 71 72 72 71 69 70 70 71 70 71 71 71 72 72 73 73 73 73 71 71 72 72 73 73 74 75 74 75 75 77 77 78
70 69 69 68 66 68 66 68 69 74 77 74 73 70 70 70 70 69 70 69 69 71 70 71 71 71 71 71 71 71 72 73 73 72 72 73 71 72 73 73 73 73 72 74 75 75 76 78 79
71 64 66 65 65 65 67 64 65 74 75 71 71 71 71 71 71 70 72 70 70 70 70 70 71 71 70 71 71 71 71 75 72 72 73 73 73 72 72 71 71 72 72 74 75 75 76 78 79
66 66 58 64 64 68 66 58 65 72 73 69 71 71 72 70 72 73 74 71 70 71 69 70 77 73 70 69 70 71 72 72 71 71 72 74 74 73 72 71 71 72 73 74 74 74 75 75 76
59 54 56 60 65 67 64 57 63 71 73 68 70 71 71 71 72 74 74 72 71 71 69 70 72 71 71 70 70 70 72 71 71 72 73 75 75 74 71 70 70 71 72 73 74 73 73 74 75
57 54 58 57 62 64 62 59 64 70 70 68 70 71 70 70 72 75 73 73 73 71 70 71 71 71 70 70 70 70 70 71 72 73 73 75 74 74 71 70 71 71 72 73 72 72 71 71 71
61 60 57 60 66 62 60 60 63 65 67 66 67 68 70 70 73 75 73 73 73 72 70 70 70 70 69 69 68 68 69 70 72 73 75 74 74 74 70 69 70 70 71 72 73 72 71 70 71
63 59 57 61 65 62 59 59 62 64 64 69 69 69 70 69 72 72 72 73 74 71 71 70 70 69 70 70 69 70 71 71 73 73 73 75 75 73 72 70 71 71 71 71 73 73 70 70 69
60 57 57 58 61 62 58 55 59 63 65 67 67 71 71 71 71 71 71 73 74 73 71 71 71 70 71 71 70 70 72 71 71 71 73 73 75 75 73 71 70 71 70 70 71 73 71 70 70
55 65 64 60 55 49 57 46 55 57 60 64 67 68 72 72 71 72 72 72 74 74 73 72 71 70 71 71 71 71 71 70 71 72 72 74 75 75 74 72 71 71 70 70 73 74 71 71 71
60 67 63 60 53 48 51 49 54 55 56 60 64 66 70 75 73 71 72 74 76 76 75 74 71 70 72 71 71 71 70 70 71 71 73 74 74 75 75 73 73 72 72 73 73 74 72 71 71
68 62 58 52 50 44 46 48 50 52 57 59 64 68 70 73 72 74 75 76 76 76 75 73 71 71 71 71 71 70 70 70 70 70 71 72 74 73 73 74 73 72 73 74 75 75 73 73 72
60 52 42 42 42 41 48 47 50 57 62 63 64 66 68 70 70 71 72 74 75 73 74 73 71 71 71 71 71 71 71 71 71 71 71 71 72 73 74 73 73 72 74 75 76 75 75 75 74
53 50 44 39 37 42 49 44 52 59 61 63 64 65 68 67 68 69 72 75 75 74 74 74 72 72 71 71 71 71 72 71 71 72 71 72 72 74 75 75 74 74 75 76 76 76 76 75 75
54 49 51 42 38 41 44 51 58 59 59 62 63 64 65 68 68 68 70 74 73 74 74 74 73 73 72 73 72 71 71 71 71 71 72 73 73 74 75 75 75 75 74 76 76 76 76 76 75
57 59 50 45 38 36 42 44 46 53 57 59 61 61 63 67 69 69 70 71 74 76 77 76 75 74 74 74 73 73 72 71 71 71 71 73 74 74 74 74 74 74 74 75 75 74 75 75 75
56 51 47 46 42 38 37 42 53 56 58 57 59 62 63 67 68 69 70 70 70 75 77 76 75 74 74 74 73 74 73 72 72 71 72 73 74 73 73 73 73 73 74 75 75 74 76 75 75
56 50 48 45 41 40 40 43 59 59 60 60 60 62 63 65 68 68 68 69 69 73 76 77 76 76 76 75 74 73 73 73 73 72 73 74 73 74 74 73 72 73 75 75 75 75 77 75 75
MSLP
1009.84 1010.21 1010.55 1010.85 1011.60 1011.17 1010.80 1010.61 1010.16 1010.47 1010.81 1011.30 1011.43 1012.06 1012.96 1013.64 1014.11 1015.18 1014.87 1014.90 1014.80 1015.17 1015.41 1015.38 1015.33 1015.46 1015.44 1015.45 1015.60 1015.84 1015.92 1015.89 1015.78 1015.83 1015.91 1015.97 1016.20 1016.24 1016.41 1016.60 1016.81 1016.95 1016.98 1017.06 1017.23 1017.41 1017.40 1017.56 1017.66
1009.98 1010.42 1010.78 1011.03 1011.43 1011.33 1011.00 1010.50 1010.56 1010.76 1011.21 1011.35 1011.73 1012.47 1012.99 1013.83 1014.33 1014.87 1015.00 1014.97 1014.89 1015.28 1015.57 1015.63 1015.71 1015.79 1015.76 1015.82 1016.05 1016.15 1016.27 1016.19 1016.12 1016.07 1016.10 1016.18 1016.32 1016.41 1016.58 1016.73 1017.00 1017.06 1017.16 1017.20 1017.31 1017.39 1017.72 1017.89 1017.93
1009.98 1010.13 1010.86 1011.09 1011.43 1011.38 1010.88 1010.69 1010.83 1010.92 1011.04 1011.20 1011.93 1012.62 1013.26 1014.35 1014.68 1014.86 1014.80 1015.00 1015.26 1015.56 1015.72 1015.71 1015.85 1016.06 1016.28 1016.66 1016.75 1016.81 1016.86 1016.71 1016.47 1016.23 1016.25 1016.38 1016.59 1016.65 1016.81 1016.92 1017.26 1017.38 1017.44 1017.51 1017.74 1017.78 1017.98 1018.13 1018.20
1009.82 1010.55 1011.09 1011.07 1011.04 1010.72 1010.42 1010.64 1010.69 1010.94 1011.10 1011.41 1011.95 1013.03 1013.90 1014.26 1014.58 1014.70 1014.95 1015.11 1015.56 1015.71 1015.69 1015.72 1015.91 1016.35 1016.57 1017.10 1017.41 1017.61 1017.43 1016.87 1016.74 1016.61 1016.61 1016.68 1016.88 1017.04 1017.17 1017.25 1017.57 1017.63 1017.72 1017.86 1017.98 1018.18 1018.34 1018.54 1018.50
1010.00 1010.53 1011.15 1011.25 1011.00 1010.64 1010.33 1010.61 1010.77 1011.05 1011.44 1011.72 1011.88 1013.66 1014.39 1014.66 1014.53 1015.01 1015.34 1015.59 1015.76 1015.90 1015.64 1015.72 1015.80 1015.99 1016.29 1016.67 1016.94 1017.24 1017.27 1017.07 1016.98 1016.91 1016.78 1016.96 1017.06 1017.31 1017.43 1017.62 1017.62 1017.82 1017.92 1018.08 1018.24 1018.45 1018.62 1018.76 1018.70
1010.40 1010.64 1011.58 1011.83 1011.18 1010.77 1010.60 1010.60 1010.95 1011.26 1011.84 1012.18 1012.71 1013.66 1014.79 1014.89 1014.95 1015.40 1015.56 1015.77 1015.72 1015.94 1015.81 1015.78 1016.03 1016.09 1016.39 1016.66 1016.76 1016.92 1017.12 1017.08 1017.13 1017.00 1016.97 1017.18 1017.55 1017.62 1017.60 1017.78 1017.83 1017.98 1018.09 1018.28 1018.45 1018.58 1018.74 1018.82 1018.76
1010.87 1011.16 1011.62 1011.95 1011.54 1010.98 1010.63 1010.70 1010.93 1011.41 1011.96 1012.35 1012.64 1014.11 1015.08 1015.24 1015.37 1015.55 1015.77 1015.91 1015.84 1016.00 1016.12 1016.03 1016.01 1016.48 1016.57 1016.62 1016.83 1017.08 1017.25 1017.20 1017.22 1017.14 1017.26 1017.36 1017.60 1017.77 1017.83 1017.93 1018.08 1018.14 1018.20 1018.43 1018.55 1018.63 1018.81 1018.83 1018.83
1011.18 1011.60 1011.73 1011.95 1011.57 1011.24 1010.79 1010.95 1011.27 1011.45 1012.00 1012.19 1012.44 1013.80 1014.95 1015.10 1015.44 1015.78 1016.01 1016.17 1016.28 1016.29 1016.41 1016.44 1016.57 1016.84 1017.09 1017.01 1017.03 1017.23 1017.42 1017.44 1017.38 1017.44 1017.60 1017.63 1017.83 1017.90 1018.04 1018.22 1018.22 1018.26 1018.27 1018.51 1018.52 1018.69 1018.79 1018.84 1018.79
1011.26 1011.86 1012.18 1012.22 1011.89 1011.68 1011.10 1011.17 1011.49 1011.51 1011.91 1012.24 1012.69 1013.33 1013.99 1014.97 1015.46 1015.97 1016.36 1016.55 1016.62 1016.69 1016.80 1016.79 1016.93 1017.15 1017.25 1017.38 1017.32 1017.38 1017.37 1017.50 1017.64 1017.78 1017.83 1018.06 1018.28 1018.43 1018.49 1018.46 1018.46 1018.31 1018.41 1018.57 1018.63 1018.71 1018.77 1018.67 1018.73
1011.62 1012.19 1012.34 1012.47 1012.28 1012.21 1012.01 1011.64 1011.53 1011.85 1012.27 1012.73 1013.33 1013.83 1014.51 1015.22 1015.67 1016.13 1016.47 1016.65 1016.79 1016.84 1016.96 1017.07 1017.20 1017.52 1017.61 1017.49 1017.56 1017.63 1017.76 1018.05 1018.22 1018.30 1018.35 1018.45 1018.64 1018.71 1018.65 1018.72 1018.59 1018.50 1018.61 1018.70 1018.74 1018.70 1018.63 1018.60 1018.71
1011.78 1012.06 1012.27 1012.63 1012.61 1012.61 1012.36 1011.76 1011.55 1011.93 1012.38 1012.60 1013.22 1014.05 1014.84 1015.38 1015.86 1016.22 1016.47 1016.52 1016.60 1016.79 1017.17 1017.48 1017.59 1017.82 1017.84 1017.81 1017.88 1018.09 1018.18 1018.43 1018.40 1018.41 1018.48 1018.61 1018.83 1018.88 1019.01 1018.96 1018.89 1018.90 1018.72 1018.77 1018.86 1018.77 1018.69 1018.69 1018.58
1011.76 1012.43 1012.56 1012.80 1013.03 1012.85 1012.79 1012.25 1011.60 1011.66 1011.94 1012.12 1013.04 1013.75 1014.63 1015.38 1015.71 1016.00 1016.47 1016.70 1016.74 1016.95 1017.23 1017.63 1017.88 1018.11 1018.04 1018.04 1018.25 1018.37 1018.46 1018.55 1018.70 1018.62 1018.68 1018.82 1018.93 1019.09 1019.06 1018.94 1018.98 1018.85 1018.83 1018.90 1018.90 1018.88 1018.73 1018.54 1018.41
1011.70 1012.14 1012.59 1012.91 1013.05 1012.95 1012.57 1012.33 1011.99 1011.84 1011.77 1012.38 1013.32 1014.07 1014.85 1015.34 1015.67 1015.96 1016.19 1016.49 1016.82 1017.16 1017.42 1017.69 1017.87 1018.10 1018.00 1018.29 1018.43 1018.44 1018.46 1018.64 1018.62 1018.79 1018.85 1018.94 1019.10 1019.07 1019.00 1018.92 1018.86 1018.84 1018.92 1018.85 1018.91 1018.72 1018.40 1018.17 1018.02
1011.40 1011.95 1012.45 1012.87 1013.12 1013.03 1012.90 1012.80 1012.43 1011.73 1012.15 1012.73 1013.47 1014.17 1014.89 1015.00 1015.40 1015.96 1016.16 1016.42 1016.72 1017.06 1017.37 1017.58 1017.82 1017.82 1018.02 1018.28 1018.26 1018.46 1018.57 1018.54 1018.75 1018.99 1018.98 1019.07 1019.30 1019.05 1018.85 1018.85 1018.85 1019.05 1019.04 1018.90 1018.87 1018.76 1018.39 1017.91 1017.78
1011.22 1012.02 1012.66 1013.30 1013.41 1013.39 1013.40 1012.96 1012.50 1011.96 1012.44 1013.04 1013.55 1014.12 1014.71 1015.03 1015.34 1015.39 1015.54 1016.00 1016.38 1016.74 1017.08 1017.47 1017.67 1017.69 1018.10 1018.32 1018.35 1018.56 1018.61 1018.62 1018.77 1018.78 1018.90 1019.13 1019.11 1019.12 1018.95 1019.02 1019.10 1019.08 1019.00 1018.87 1018.78 1018.70 1018.38 1018.16 1017.87
1011.44 1011.88 1012.57 1012.87 1013.25 1013.23 1013.64 1013.50 1012.99 1012.48 1012.73 1013.29 1013.68 1014.12 1014.51 1014.90 1014.87 1015.11 1015.45 1016.00 1016.29 1016.72 1016.99 1017.31 1017.55 1017.73 1018.16 1018.28 1018.37 1018.48 1018.52 1018.62 1018.67 1018.84 1019.05 1019.07 1019.09 1019.16 1019.17 1019.26 1019.26 1019.19 1019.12 1019.08 1018.92 1018.77 1018.76 1018.70 1018.50
1011.94 1012.20 1012.41 1012.89 1013.00 1013.01 1013.63 1013.81 1013.54 1013.07 1013.06 1013.65 1013.78 1014.04 1014.24 1014.68 1014.89 1015.00 1015.26 1015.81 1016.18 1016.53 1016.97 1017.25 1017.47 1017.73 1018.13 1018.00 1018.24 1018.35 1018.38 1018.63 1018.76 1018.82 1018.82 1018.88 1019.01 1019.19 1019.25 1019.41 1019.41 1019.39 1019.14 1019.07 1019.00 1019.13 1019.17 1019.26 1019.12
1011.56 1011.97 1012.38 1012.52 1012.91 1013.26 1013.47 1013.49 1013.11 1012.79 1013.13 1013.56 1013.72 1013.91 1014.14 1014.31 1014.21 1014.48 1015.05 1015.59 1016.02 1016.47 1016.95 1017.23 1017.40 1017.75 1018.03 1018.09 1018.20 1018.36 1018.43 1018.58 1018.57 1018.65 1018.63 1018.75 1019.09 1019.14 1019.31 1019.52 1019.50 1019.45 1019.48 1019.41 1019.44 1019.64 1019.48 1019.52 1019.57
1011.04 1011.60 1012.15 1012.27 1012.30 1012.74 1013.18 1013.41 1013.30 1013.51 1013.58 1013.68 1013.69 1013.84 1013.92 1013.82 1013.81 1014.38 1014.87 1015.34 1015.86 1016.21 1016.78 1017.07 1017.32 1017.58 1017.97 1018.31 1018.32 1018.57 1018.51 1018.47 1018.49 1018.57 1018.71 1018.82 1019.02 1019.11 1019.38 1019.60 1019.59 1019.63 1019.71 1019.71 1019.71 1019.80 1019.80 1019.62 1019.80
1010.93 1011.47 1011.88 1012.32 1012.45 1012.84 1013.20 1013.38 1013.62 1013.74 1013.59 1013.39 1013.59 1013.48 1013.50 1013.76 1013.99 1014.21 1014.71 1015.22 1015.66 1015.87 1016.49 1016.88 1017.08 1017.42 1017.60 1017.72 1017.80 1017.96 1018.16 1018.35 1018.36 1018.50 1018.75 1018.89 1019.15 1019.18 1019.50 1019.58 1019.53 1019.47 1019.64 1019.73 1019.76 1019.78 1019.83 1019.90 1019.89
1010.74 1011.06 1011.59 1012.22 1012.82 1013.15 1013.51 1013.79 1013.64 1013.64 1013.59 1013.40 1013.50 1013.25 1013.10 1013.23 1013.57 1013.95 1014.39 1014.75 1015.27 1015.69 1015.83 1016.38 1016.73 1016.99 1017.40 1017.61 1017.79 1018.03 1018.20 1018.29 1018.68 1018.78 1018.78 1018.81 1019.09 1019.21 1019.32 1019.36 1019.72 1019.70 1019.60 1019.69 1019.59 1019.61 1019.62 1019.93 1020.09
1010.23 1010.02 1011.34 1012.40 1013.19 1013.94 1014.04 1014.27 1013.58 1013.51 1013.62 1013.33 1013.08 1013.12 1012.79 1012.86 1013.27 1013.52 1013.78 1014.37 1014.69 1015.08 1015.45 1015.92 1016.34 1016.77 1017.14 1017.61 1017.70 1017.95 1018.02 1018.39 1018.49 1018.48 1018.53 1018.76 1018.81 1019.05 1019.28 1019.37 1019.52 1019.61 1019.70 1019.62 1019.39 1019.36 1019.58 1019.69 1020.14
1009.81 1010.02 1011.67 1012.94 1013.91 1014.62 1014.66 1014.78 1013.58 1013.45 1013.34 1013.07 1012.83 1012.72 1012.39 1012.19 1012.68 1012.99 1013.22 1013.51 1013.88 1014.59 1014.99 1015.47 1016.01 1016.47 1016.97 1017.39 1017.38 1017.58 1017.99 1018.16 1018.30 1018.50 1018.52 1018.57 1018.58 1018.87 1019.15 1019.31 1019.38 1019.52 1019.61 1019.41 1019.46 1019.41 1019.49 1019.62 1019.88
1009.82 1011.14 1012.61 1013.93 1014.75 1015.66 1015.23 1015.24 1014.08 1013.45 1012.97 1012.70 1012.28 1012.03 1011.91 1011.75 1012.09 1012.40 1012.62 1013.14 1013.62 1014.31 1014.71 1015.30 1015.99 1016.18 1016.60 1017.01 1017.37 1017.51 1017.61 1017.91 1018.24 1018.45 1018.70 1018.63 1018.72 1018.83 1018.81 1019.11 1019.05 1019.34 1019.25 1019.31 1019.27 1019.43 1019.74 1019.73 1019.68
1010.34 1011.77 1014.10 1015.57 1016.22 1016.36 1015.81 1015.66 1013.88 1013.13 1012.91 1012.64 1012.43 1012.16 1012.00 1011.92 1011.97 1012.09 1012.59 1012.84 1013.29 1013.87 1014.36 1014.84 1015.50 1015.85 1016.19 1016.70 1017.08 1017.33 1017.31 1017.49 1017.77 1018.02 1018.23 1018.46 1018.57 1018.61 1018.59 1018.85 1018.97 1019.00 1019.00 1018.93 1019.03 1019.25 1019.46 1019.59 1019.66
1010.61 1011.85 1013.80 1015.62 1017.12 1016.59 1016.17 1015.36 1013.77 1013.22 1013.12 1012.88 1012.54 1012.07 1011.87 1011.81 1011.70 1011.87 1011.99 1012.37 1012.80 1013.27 1013.84 1014.32 1014.95 1015.37 1015.73 1016.09 1016.46 1016.84 1017.13 1017.18 1017.31 1017.57 1017.83 1017.98 1018.12 1018.09 1018.09 1018.32 1018.61 1018.75 1018.86 1018.79 1018.91 1019.08 1019.24 1019.33 1019.49
1011.03 1012.33 1013.48 1015.29 1017.13 1017.15 1016.17 1014.93 1013.80 1013.55 1013.40 1013.12 1012.84 1012.52 1012.51 1012.05 1011.70 1011.66 1011.82 1011.99 1012.51 1012.93 1013.26 1013.62 1014.34 1014.69 1015.14 1015.42 1015.80 1016.29 1016.63 1016.93 1017.04 1017.12 1017.46 1017.66 1017.83 1017.80 1017.83 1017.95 1018.35 1018.41 1018.65 1018.58 1018.72 1018.94 1018.99 1019.12 1019.22
1010.43 1012.26 1013.77 1015.22 1017.03 1017.49 1016.44 1015.48 1014.17 1013.65 1013.63 1013.46 1013.25 1013.07 1012.58 1012.15 1011.80 1011.43 1011.67 1011.80 1011.94 1012.31 1012.74 1013.20 1013.49 1013.95 1014.11 1014.86 1015.28 1015.60 1016.10 1016.40 1016.70 1016.89 1017.16 1017.35 1017.49 1017.51 1017.66 1017.85 1018.04 1018.33 1018.47 1018.47 1018.66 1018.77 1018.89 1019.02 1019.13
1011.38 1012.59 1014.35 1015.74 1016.87 1017.35 1016.92 1015.33 1013.45 1013.35 1013.32 1013.54 1013.68 1013.51 1012.90 1012.12 1011.52 1011.47 1011.36 1011.80 1011.89 1012.05 1012.46 1012.76 1013.14 1013.44 1013.93 1014.22 1014.80 1015.17 1015.56 1016.07 1016.45 1016.73 1016.80 1017.02 1017.22 1017.32 1017.46 1017.64 1017.88 1018.12 1018.22 1018.28 1018.44 1018.70 1018.66 1018.78 1018.93
1011.65 1012.69 1014.01 1015.81 1017.14 1017.38 1016.82 1014.62 1013.09 1012.98 1013.20 1013.50 1013.67 1013.45 1013.29 1012.78 1011.79 1011.81 1011.31 1011.81 1011.97 1011.79 1011.73 1012.09 1012.45 1012.87 1013.08 1013.52 1014.26 1014.86 1015.10 1015.49 1016.04 1016.48 1016.62 1016.71 1016.85 1017.00 1017.17 1017.45 1017.80 1017.97 1017.95 1018.05 1018.16 1018.18 1018.22 1018.40 1018.54
Wind_Speed
6 5 2 3 3 3 2 2 2 3 3 5 5 5 8 3 1 3 2 3 7 6 3 3 10 8 8 9 11 10 9 10 11 13 13 14 13 13 12 13 12 12 13 14 14 13 13 14 13
4 4 2 2 5 4 3 2 4 3 7 10 10 7 4 3 3 5 3 4 8 6 3 3 2 5 9 13 13 11 10 8 9 12 13 14 13 13 13 13 12 12 12 14 14 14 13 13 13
5 2 2 4 3 2 2 2 5 6 3 3 6 5 2 2 4 5 2 6 6 5 3 2 6 10 14 13 12 12 9 3 9 11 12 12 12 12 12 14 13 12 13 12 13 12 12 12 12
3 3 3 4 2 1 4 5 7 6 6 5 9 7 5 4 5 5 7 7 6 3 3 6 9 10 17 19 14 7 2 3 8 11 12 12 11 12 12 13 13 13 13 12 10 9 9 10 9
2 2 4 3 3 3 6 6 2 4 3 5 2 5 4 2 8 9 7 7 6 3 2 5 10 10 13 18 18 13 5 5 8 10 12 12 11 10 11 11 12 11 11 11 9 8 7 7 7
3 1 5 3 3 4 4 6 4 8 7 11 10 6 2 4 9 6 6 6 4 4 1 2 6 8 8 8 8 11 7 6 8 11 11 11 11 12 11 11 11 10 10 9 8 7 5 4 5
4 2 6 3 7 3 3 5 3 7 7 4 7 5 1 3 6 6 6 5 5 4 3 3 3 6 8 9 7 8 6 5 8 9 11 10 11 11 11 10 10 10 9 8 7 5 4 3 3
3 3 2 4 4 3 4 3 3 8 3 7 6 6 5 5 8 7 5 5 3 2 3 4 3 4 4 3 7 7 7 6 8 8 8 8 8 9 9 8 7 6 6 4 4 4 4 4 3
1 4 3 3 4 3 6 4 3 3 8 1 2 5 8 12 11 7 4 3 3 1 1 2 4 3 4 2 3 6 5 5 7 5 7 5 3 4 5 4 3 4 3 2 3 3 3 3 3
4 3 4 2 3 1 6 4 6 4 3 4 9 14 15 12 10 9 5 5 4 4 2 2 4 3 3 1 3 4 4 4 3 3 4 3 4 2 3 4 4 4 4 4 4 5 5 4 2
2 3 4 3 4 3 5 3 3 9 3 5 11 13 13 12 8 8 6 6 6 4 3 3 4 3 2 2 2 2 2 1 2 2 1 3 2 2 2 1 2 2 3 1 3 3 2 4 4
4 7 4 1 2 4 4 7 5 11 3 8 11 15 12 12 10 10 8 6 6 4 4 4 4 3 3 1 2 2 2 2 0 1 1 2 1 2 1 1 2 2 2 3 2 2 3 4 5
3 6 7 5 1 2 5 5 5 7 7 12 11 12 12 10 8 6 6 6 5 5 4 5 5 4 4 3 2 2 2 1 1 2 0 2 1 2 1 2 2 2 3 2 2 2 2 3 3
4 6 10 7 3 6 4 4 7 7 9 12 13 12 9 12 11 5 6 6 7 6 6 6 6 5 4 4 3 2 1 2 1 1 0 1 3 3 2 1 2 2 2 2 1 1 3 2 1
6 7 4 6 3 2 1 5 5 4 11 13 12 11 10 9 8 12 12 9 8 6 7 7 6 6 5 4 4 2 2 2 2 1 3 3 3 3 2 2 2 2 2 2 1 1 1 2 2
1 3 4 5 6 4 7 2 8 6 13 11 11 10 11 8 12 10 9 7 6 5 7 6 7 6 5 5 4 3 3 2 1 2 3 4 2 2 1 0 1 1 1 1 1 2 3 2 2
3 2 2 5 10 3 5 6 11 3 8 8 9 10 10 9 8 9 7 7 9 7 7 6 6 6 6 5 4 4 3 1 2 3 4 3 4 3 1 1 1 2 1 1 2 3 2 2 1
2 2 1 2 7 5 3 4 13 8 6 9 10 10 9 8 15 11 7 6 6 6 6 5 6 5 6 3 3 1 0 1 3 3 3 3 3 4 2 1 2 1 1 2 3 3 4 3 2
0 2 3 1 4 5 6 5 13 8 6 6 7 8 9 10 9 9 8 7 6 6 7 8 8 6 4 2 2 1 2 1 1 3 3 3 4 3 4 2 2 1 1 2 2 1 3 4 3
3 1 3 1 2 2 4 5 6 6 7 9 7 8 11 6 7 8 10 10 9 8 7 6 8 6 5 3 2 2 3 2 1 1 1 3 3 3 3 3 2 2 1 3 2 1 1 2 3
4 6 5 3 4 2 4 3 5 5 5 8 7 5 6 12 12 10 12 12 10 10 10 10 8 8 6 5 3 2 3 3 2 1 2 3 5 3 3 5 3 3 2 3 2 1 3 2 2
3 7 7 8 4 2 2 3 4 3 6 5 8 6 9 13 7 10 12 12 13 13 8 7 7 7 6 6 5 5 4 4 3 3 3 4 5 2 3 3 4 3 2 4 1 1 2 2 2
4 7 7 4 5 2 3 3 5 2 5 8 10 9 9 9 12 14 15 16 15 11 10 8 7 7 7 7 6 5 4 3 1 1 2 2 2 3 3 4 3 3 1 2 2 0 0 1 2
8 9 9 6 3 3 1 4 6 2 3 3 4 9 13 10 10 12 13 12 13 9 8 7 8 9 7 7 7 7 8 6 3 3 3 3 2 3 4 4 3 3 3 2 1 1 4 2 1
4 7 5 5 4 6 3 2 9 3 4 4 6 7 9 8 8 8 11 13 12 12 11 9 10 10 9 9 7 8 7 7 7 6 4 4 3 3 4 3 4 3 4 4 2 2 2 2 1
2 6 8 6 5 4 3 5 6 2 3 4 5 5 5 6 6 8 11 12 12 13 12 12 12 12 10 10 9 7 7 5 5 5 4 3 4 3 4 4 5 5 5 4 3 2 2 2 3
4 3 4 9 3 2 3 6 4 4 3 3 2 4 3 4 7 7 8 7 10 12 15 15 13 12 10 11 8 7 6 6 7 7 4 3 4 4 4 4 5 5 5 4 4 3 3 2 2
4 5 4 4 3 3 5 5 6 5 3 3 4 4 5 6 7 10 8 9 8 11 12 12 13 14 14 11 9 8 8 7 6 5 6 6 4 5 5 5 5 4 4 4 4 2 3 2 2
2 3 7 6 4 5 2 7 5 7 6 5 4 5 7 6 4 7 6 4 6 8 10 12 12 13 11 11 10 9 8 7 5 5 5 6 4 5 5 5 5 5 5 5 4 4 3 3 3
2 3 5 6 3 2 4 8 3 6 5 5 5 6 7 8 4 5 5 3 5 11 13 14 14 13 13 12 10 10 8 8 7 7 6 5 6 4 5 5 5 5 5 4 5 4 4 4 4
Wind_Direction
156 124 128 52 59 79 84 34 105 108 65 330 72 100 110 34 95 193 54 101 110 109 115 40 119 70 71 76 69 69 82 91 98 104 102 101 103 106 107 108 108 115 115 110 106 109 115 116 116
131 148 39 95 70 50 357 42 38 51 136 112 95 84 59 73 62 98 94 148 132 136 121 54 65 78 84 67 51 48 62 79 97 100 100 95 100 98 107 109 111 103 108 110 116 113 110 110 108
149 178 76 91 103 139 171 86 115 134 150 101 113 57 57 74 61 148 146 134 108 115 132 153 133 112 95 66 55 30 32 24 92 96 94 95 96 99 105 104 102 102 98 99 98 109 113 113 107
202 35 33 75 74 58 142 141 128 132 92 74 119 74 63 128 164 162 133 123 122 129 177 161 144 144 147 139 142 130 246 157 98 93 89 89 93 95 95 97 103 97 90 92 96 98 101 103 97
48 88 56 75 50 23 85 114 72 65 70 88 72 87 79 16 93 117 117 127 128 138 220 160 151 151 145 146 146 137 146 105 104 98 90 87 82 90 104 100 92 89 96 92 92 88 84 78 73
27 74 64 50 51 60 64 97 109 80 87 97 83 85 84 114 116 122 116 125 149 167 228 150 144 152 141 135 131 122 162 111 105 93 94 91 95 94 102 88 84 87 84 83 83 82 81 73 66
101 41 132 163 106 88 120 93 110 118 118 69 130 81 64 103 121 119 125 139 159 160 163 173 162 154 148 146 132 120 118 97 97 88 92 90 85 89 87 86 87 83 83 85 88 85 77 68 64
85 81 87 56 105 56 127 92 108 117 58 122 151 150 179 176 118 107 114 132 131 122 147 159 126 92 83 105 124 126 116 101 90 103 93 94 81 92 90 70 83 84 81 86 87 79 56 38 58
88 63 85 62 62 63 57 117 166 64 132 121 57 112 135 125 118 105 111 102 107 95 114 132 110 93 94 95 143 114 122 107 94 89 99 68 62 52 58 70 52 72 61 36 29 34 23 5 25
59 82 128 48 29 20 332 311 152 104 159 52 74 89 111 130 139 141 156 169 162 189 187 156 120 104 101 71 77 90 58 62 68 67 71 60 52 31 53 13 4 19 6 5 8 8 350 350 325
75 68 96 58 47 5 325 254 165 132 234 198 149 137 139 144 157 154 176 182 188 183 146 146 111 97 122 146 110 70 65 97 61 63 70 65 42 20 5 338 359 342 337 353 0 342 325 331 309
79 98 130 86 125 8 356 309 167 161 230 124 153 148 144 156 174 170 172 183 178 178 168 138 129 142 195 113 102 131 118 87 156 327 343 26 17 2 270 333 308 298 328 317 297 310 291 269 262
86 134 133 124 239 2 337 17 327 187 129 112 137 150 152 166 183 172 172 170 156 178 170 170 159 188 194 149 160 128 144 167 218 335 347 8 13 220 242 262 275 329 344 331 360 253 264 260 261
124 143 139 161 99 13 21 1 358 236 125 136 152 160 175 176 182 160 180 182 177 172 180 173 179 204 189 161 154 154 200 252 252 272 271 77 261 261 221 85 59 35 322 321 292 281 276 298 75
134 123 127 150 183 151 306 306 216 209 146 158 167 172 180 192 173 194 196 188 181 191 167 181 191 196 182 169 169 178 217 253 245 194 176 222 225 206 165 133 142 198 277 307 350 345 320 37 30
96 103 147 152 141 265 142 320 351 42 153 175 174 190 188 204 205 195 195 187 179 172 173 173 203 195 171 182 179 208 231 255 247 206 203 231 202 211 275 234 199 272 343 315 4 30 42 33 23
81 143 218 131 182 125 196 114 262 272 165 181 191 197 202 200 217 215 194 177 172 182 171 180 197 192 177 202 191 215 248 183 217 212 204 216 172 187 257 264 236 292 306 1 16 27 40 63 43
207 129 256 165 193 217 244 211 205 200 214 191 198 209 201 198 211 200 175 169 176 170 174 181 198 185 177 169 145 115 165 198 187 214 228 214 180 200 183 229 241 217 0 331 43 34 44 73 61
293 133 129 205 152 167 193 210 192 223 225 205 214 197 209 207 214 191 164 164 172 182 174 192 188 183 164 160 142 145 188 181 198 200 197 183 209 191 183 204 162 154 224 281 256 96 46 22 13
231 163 183 357 123 130 171 214 190 181 230 220 214 201 198 182 179 184 163 172 190 191 187 193 199 178 193 177 158 157 141 155 139 124 185 204 216 183 178 204 165 161 178 271 249 191 146 69 15
186 192 164 151 120 57 104 306 187 212 209 216 246 221 204 186 187 180 173 182 183 199 188 197 200 182 194 200 110 77 83 68 86 131 215 208 201 232 210 221 176 191 179 225 207 161 107 127 15
229 162 132 129 97 212 7 271 252 192 220 219 221 202 200 206 182 187 176 184 191 204 191 189 192 181 194 177 166 163 173 163 204 188 203 178 199 196 211 202 196 192 230 251 233 131 128 129 133
242 117 113 114 93 82 353 60 257 200 210 222 219 211 217 206 188 189 186 188 200 190 193 188 184 180 184 187 190 174 174 189 132 152 197 184 210 196 204 224 212 236 227 260 282 151 21 43 121
124 82 55 57 81 13 290 139 282 252 231 272 255 211 205 211 195 201 191 188 189 188 183 171 183 197 187 187 190 196 193 184 181 185 195 215 190 194 221 216 234 232 238 249 251 187 190 193 205
93 63 21 18 15 222 343 39 243 255 303 284 264 249 217 214 199 195 180 185 187 181 183 180 183 204 195 189 186 199 201 185 197 200 193 180 194 205 225 203 220 241 250 238 234 246 243 198 200
85 137 150 188 193 248 42 239 271 132 14 349 357 346 202 182 174 190 200 191 191 188 188 188 189 207 199 195 198 194 204 195 199 196 200 196 197 207 195 206 206 229 238 239 234 228 241 234 238
187 82 166 105 13 61 233 291 300 176 14 340 293 6 330 211 189 198 192 212 191 190 192 192 194 202 202 205 196 193 200 200 204 201 201 194 202 212 214 214 210 211 217 225 219 227 249 250 256
101 142 72 16 141 257 290 275 241 217 239 239 216 242 268 277 234 189 207 198 206 205 200 199 193 203 201 202 202 197 204 206 218 194 199 199 211 208 198 187 195 208 225 232 218 238 254 247 255
47 59 54 107 110 161 263 265 216 192 206 203 243 272 274 286 221 170 139 202 233 209 198 205 205 199 200 199 203 203 196 200 200 214 212 206 198 201 202 183 186 210 223 226 224 219 227 238 261
93 128 129 119 219 105 151 276 229 210 191 168 216 264 301 303 242 174 146 208 232 209 210 204 206 206 203 200 197 209 198 189 201 208 215 210 218 198 210 196 208 225 221 212 217 229 221 222 251